Time,TemperatureF,DewpointF,PressureIn,WindDirection,WindDirectionDegrees,WindSpeedMPH,WindSpeedGustMPH,Humidity,HourlyPrecipIn,Conditions,Clouds,dailyrainin,SoftwareType,DateUTC
2013-11-25 00:04:00,27.0,3.5,30.35,NE,46,0.0,0.0,36,0.00,CLR,CLR,0.00,WeatherDisplay:10.36,2013-11-25 06:04:00,
2013-11-25 00:09:00,27.0,3.5,30.35,NE,45,0.0,0.0,36,0.00,CLR,CLR,0.00,WeatherDisplay:10.36,2013-11-25 06:09:00,
2013-11-25 00:14:00,27.0,3.5,30.35,NE,47,0.0,0.0,36,0.00,CLR,CLR,0.00,WeatherDisplay:10.36,2013-11-25 06:14:00,
2013-11-25 00:19:00,27.0,3.5,30.35,NE,45,0.0,0.0,36,0.00,CLR,CLR,0.00,WeatherDisplay:10.36,2013-11-25 06:19:00,
2013-11-25 00:24:00,27.0,3.5,30.35,ENE,69,0.0,0.0,36,0.00,CLR,CLR,0.00,WeatherDisplay:10.36,2013-11-25 06:24:00,
2013-11-25 00:29:00,27.0,3.5,30.35,NE,45,0.0,0.0,36,0.00,CLR,CLR,0.00,WeatherDisplay:10.36,2013-11-25 06:29:00,
2013-11-25 00:34:00,27.0,3.5,30.35,NE,53,0.0,0.0,36,0.00,CLR,CLR,0.00,WeatherDisplay:10.36,2013-11-25 06:34:00,
2013-11-25 00:39:00,27.1,3.7,30.35,NE,46,0.0,0.0,36,0.00,CLR,CLR,0.00,WeatherDisplay:10.36,2013-11-25 06:39:00,
2013-11-25 00:44:00,27.1,3.7,30.35,NE,44,0.0,0.0,36,0.00,CLR,CLR,0.00,WeatherDisplay:10.36,2013-11-25 06:44:00,
2013-11-25 00:49:00,27.0,3.5,30.32,NE,53,0.0,0.0,36,0.00,CLR,CLR,0.00,WeatherDisplay:10.36,2013-11-25 06:49:00,
2013-11-25 00:54:00,27.0,3.5,30.32,NE,41,0.0,0.0,36,0.00,CLR,CLR,0.00,WeatherDisplay:10.36,2013-11-25 06:54:00,
2013-11-25 00:59:00,27.1,4.3,30.32,NE,44,0.0,0.0,37,0.00,CLR,CLR,0.00,WeatherDisplay:10.36,2013-11-25 06:59:00,
2013-11-25 01:04:00,27.1,4.3,30.32,NE,52,0.0,0.0,37,0.00,CLR,CLR,0.00,WeatherDisplay:10.36,2013-11-25 07:04:00,
2013-11-25 01:09:00,27.1,4.3,30.32,NE,44,0.0,0.0,37,0.00,CLR,CLR,0.00,WeatherDisplay:10.36,2013-11-25 07:09:00,
2013-11-25 01:14:00,27.1,4.3,30.32,ESE,118,0.0,0.0,37,0.00,CLR,CLR,0.00,WeatherDisplay:10.36,2013-11-25 07:14:00,
2013-11-25 01:19:00,27.1,4.3,30.32,NE,44,0.0,0.0,37,0.00,CLR,CLR,0.00,WeatherDisplay:10.36,2013-11-25 07:19:00,
2013-11-25 01:24:00,27.1,4.3,30.32,NE,50,0.0,0.0,37,0.00,CLR,CLR,0.00,WeatherDisplay:10.36,2013-11-25 07:24:00,
2013-11-25 01:29:00,27.1,4.3,30.32,NE,45,0.0,0.0,37,0.00,CLR,CLR,0.00,WeatherDisplay:10.36,2013-11-25 07:29:00,
2013-11-25 01:34:00,27.1,4.3,30.32,NE,47,0.0,0.0,37,0.00,CLR,CLR,0.00,WeatherDisplay:10.36,2013-11-25 07:34:00,
2013-11-25 01:39:00,27.1,4.3,30.32,NE,56,0.0,0.0,37,0.00,CLR,CLR,0.00,WeatherDisplay:10.36,2013-11-25 07:39:00,
2013-11-25 01:44:00,27.1,4.9,30.32,NE,47,0.0,0.0,38,0.00,CLR,CLR,0.00,WeatherDisplay:10.36,2013-11-25 07:44:00,
2013-11-25 01:49:00,27.1,4.9,30.32,NE,46,0.0,0.0,38,0.00,CLR,CLR,0.00,WeatherDisplay:10.36,2013-11-25 07:49:00,
2013-11-25 01:54:00,27.0,4.7,30.32,NE,46,0.0,0.0,38,0.00,CLR,CLR,0.00,WeatherDisplay:10.36,2013-11-25 07:54:00,
2013-11-25 01:59:00,27.0,4.7,30.32,NE,52,0.0,0.0,38,0.00,CLR,CLR,0.00,WeatherDisplay:10.36,2013-11-25 07:59:00,
2013-11-25 02:04:00,27.0,5.3,30.29,NE,47,0.0,0.0,39,0.00,CLR,CLR,0.00,WeatherDisplay:10.36,2013-11-25 08:04:00,
2013-11-25 02:09:00,27.0,5.3,30.29,NE,45,0.0,0.0,39,0.00,CLR,CLR,0.00,WeatherDisplay:10.36,2013-11-25 08:09:00,
2013-11-25 02:14:00,26.8,5.1,30.29,NE,49,0.0,0.0,39,0.00,CLR,CLR,0.00,WeatherDisplay:10.36,2013-11-25 08:14:00,
2013-11-25 02:19:00,26.8,5.6,30.29,NE,48,0.0,0.0,40,0.00,CLR,CLR,0.00,WeatherDisplay:10.36,2013-11-25 08:19:00,
2013-11-25 02:24:00,26.8,5.6,30.29,NE,48,0.0,0.0,40,0.00,CLR,CLR,0.00,WeatherDisplay:10.36,2013-11-25 08:24:00,
2013-11-25 02:29:00,26.8,5.6,30.29,ENE,77,0.0,0.0,40,0.00,CLR,CLR,0.00,WeatherDisplay:10.36,2013-11-25 08:29:00,
2013-11-25 02:34:00,26.6,5.5,30.29,ENE,70,0.0,0.0,40,0.00,CLR,CLR,0.00,WeatherDisplay:10.36,2013-11-25 08:34:00,
2013-11-25 02:39:00,26.6,5.5,30.29,NE,47,0.0,0.0,40,0.00,CLR,CLR,0.00,WeatherDisplay:10.36,2013-11-25 08:39:00,
2013-11-25 02:44:00,26.6,6.0,30.29,NE,44,0.0,0.0,41,0.00,CLR,CLR,0.00,WeatherDisplay:10.36,2013-11-25 08:44:00,
2013-11-25 02:49:00,26.6,6.0,30.29,ENE,57,0.0,0.0,41,0.00,CLR,CLR,0.00,WeatherDisplay:10.36,2013-11-25 08:49:00,
2013-11-25 02:54:00,26.6,6.0,30.29,NE,43,0.0,0.0,41,0.00,CLR,CLR,0.00,WeatherDisplay:10.36,2013-11-25 08:54:00,
2013-11-25 02:59:00,26.6,6.0,30.29,NE,44,0.0,0.0,41,0.00,CLR,CLR,0.00,WeatherDisplay:10.36,2013-11-25 08:59:00,
2013-11-25 03:04:00,26.8,6.2,30.29,East,79,0.0,0.0,41,0.00,CLR,CLR,0.00,WeatherDisplay:10.36,2013-11-25 09:04:00,
2013-11-25 03:09:00,27.0,6.4,30.29,NE,46,0.0,0.0,41,0.00,CLR,CLR,0.00,WeatherDisplay:10.36,2013-11-25 09:09:00,
2013-11-25 03:14:00,27.1,6.5,30.29,East,82,0.0,0.0,41,0.00,CLR,CLR,0.00,WeatherDisplay:10.36,2013-11-25 09:14:00,
2013-11-25 03:19:00,27.1,6.5,30.29,NE,49,0.0,0.0,41,0.00,CLR,CLR,0.00,WeatherDisplay:10.36,2013-11-25 09:19:00,
2013-11-25 03:24:00,27.1,6.5,30.29,SE,129,0.0,0.0,41,0.00,CLR,CLR,0.00,WeatherDisplay:10.36,2013-11-25 09:24:00,
2013-11-25 03:29:00,27.3,6.7,30.29,ENE,65,0.0,0.0,41,0.00,CLR,CLR,0.00,WeatherDisplay:10.36,2013-11-25 09:29:00,
2013-11-25 03:34:00,27.3,6.7,30.26,ENE,58,0.0,0.0,41,0.00,CLR,CLR,0.00,WeatherDisplay:10.36,2013-11-25 09:34:00,
2013-11-25 03:39:00,27.3,6.7,30.26,NE,35,0.0,0.0,41,0.00,CLR,CLR,0.00,WeatherDisplay:10.36,2013-11-25 09:39:00,
2013-11-25 03:44:00,27.5,6.8,30.26,NE,44,0.0,0.0,41,0.00,CLR,CLR,0.00,WeatherDisplay:10.36,2013-11-25 09:44:00,
2013-11-25 03:49:00,27.5,6.3,30.26,NE,52,0.0,0.0,40,0.00,CLR,CLR,0.00,WeatherDisplay:10.36,2013-11-25 09:49:00,
2013-11-25 03:54:00,27.5,6.3,30.26,NE,44,0.0,0.0,40,0.00,CLR,CLR,0.00,WeatherDisplay:10.36,2013-11-25 09:54:00,
2013-11-25 03:59:00,27.7,6.5,30.26,NE,54,0.0,0.0,40,0.00,CLR,CLR,0.00,WeatherDisplay:10.36,2013-11-25 09:59:00,
2013-11-25 04:04:00,27.9,6.6,30.26,NE,45,0.0,0.0,40,0.00,CLR,CLR,0.00,WeatherDisplay:10.36,2013-11-25 10:04:00,
2013-11-25 04:09:00,27.9,6.6,30.26,NE,44,0.0,0.0,40,0.00,CLR,CLR,0.00,WeatherDisplay:10.36,2013-11-25 10:09:00,
2013-11-25 04:14:00,27.9,6.6,30.26,SE,140,0.0,0.0,40,0.00,CLR,CLR,0.00,WeatherDisplay:10.36,2013-11-25 10:14:00,
2013-11-25 04:19:00,28.0,6.8,30.26,ENE,75,0.0,0.0,40,0.00,CLR,CLR,0.00,WeatherDisplay:10.36,2013-11-25 10:19:00,
2013-11-25 04:24:00,28.0,6.8,30.26,ENE,78,0.0,0.0,40,0.00,CLR,CLR,0.00,WeatherDisplay:10.36,2013-11-25 10:24:00,
2013-11-25 04:29:00,28.0,6.8,30.26,NE,43,0.0,0.0,40,0.00,CLR,CLR,0.00,WeatherDisplay:10.36,2013-11-25 10:29:00,
2013-11-25 04:34:00,28.2,7.0,30.26,ENE,62,0.0,0.0,40,0.00,CLR,CLR,0.00,WeatherDisplay:10.36,2013-11-25 10:34:00,
2013-11-25 04:39:00,28.2,7.0,30.26,NE,44,0.0,0.0,40,0.00,CLR,CLR,0.00,WeatherDisplay:10.36,2013-11-25 10:39:00,
2013-11-25 04:44:00,28.2,7.0,30.26,NE,43,0.0,0.0,40,0.00,CLR,CLR,0.00,WeatherDisplay:10.36,2013-11-25 10:44:00,
2013-11-25 04:49:00,28.2,7.0,30.26,NE,44,0.0,0.0,40,0.00,CLR,CLR,0.00,WeatherDisplay:10.36,2013-11-25 10:49:00,
2013-11-25 04:54:00,28.2,7.0,30.26,ESE,102,0.0,0.0,40,0.00,CLR,CLR,0.00,WeatherDisplay:10.36,2013-11-25 10:54:00,
2013-11-25 04:59:00,28.2,7.0,30.26,NE,46,0.0,0.0,40,0.00,CLR,CLR,0.00,WeatherDisplay:10.36,2013-11-25 10:59:00,
2013-11-25 05:04:00,28.4,7.1,30.23,NE,45,0.0,0.0,40,0.00,CLR,CLR,0.00,WeatherDisplay:10.36,2013-11-25 11:04:00,
2013-11-25 05:09:00,28.4,7.7,30.23,NE,48,0.0,0.0,41,0.00,CLR,CLR,0.00,WeatherDisplay:10.36,2013-11-25 11:09:00,
2013-11-25 05:14:00,28.8,8.0,30.23,NE,39,0.0,0.0,41,0.00,CLR,CLR,0.00,WeatherDisplay:10.36,2013-11-25 11:14:00,
2013-11-25 05:19:00,28.8,8.0,30.23,NE,46,0.0,0.0,41,0.00,CLR,CLR,0.00,WeatherDisplay:10.36,2013-11-25 11:19:00,
2013-11-25 05:24:00,29.1,8.8,30.23,East,79,0.0,0.0,42,0.00,CLR,CLR,0.00,WeatherDisplay:10.36,2013-11-25 11:24:00,
2013-11-25 05:29:00,29.1,8.8,30.23,ESE,103,0.0,0.0,42,0.00,CLR,CLR,0.00,WeatherDisplay:10.36,2013-11-25 11:29:00,
2013-11-25 05:34:00,29.3,9.0,30.23,ENE,70,0.0,0.0,42,0.00,CLR,CLR,0.00,WeatherDisplay:10.36,2013-11-25 11:34:00,
2013-11-25 05:39:00,29.5,8.6,30.23,NE,43,0.0,0.0,41,0.00,CLR,CLR,0.00,WeatherDisplay:10.36,2013-11-25 11:39:00,
2013-11-25 05:44:00,29.7,8.8,30.23,NE,41,0.0,0.0,41,0.00,CLR,CLR,0.00,WeatherDisplay:10.36,2013-11-25 11:44:00,
2013-11-25 05:49:00,29.7,8.8,30.23,NE,45,0.0,0.0,41,0.00,CLR,CLR,0.00,WeatherDisplay:10.36,2013-11-25 11:49:00,
2013-11-25 05:54:00,29.8,9.0,30.23,NE,47,0.0,0.0,41,0.00,CLR,CLR,0.00,WeatherDisplay:10.36,2013-11-25 11:54:00,
2013-11-25 05:59:00,30.0,9.1,30.23,East,81,0.0,0.0,41,0.00,CLR,CLR,0.00,WeatherDisplay:10.36,2013-11-25 11:59:00,
2013-11-25 06:04:00,29.8,8.4,30.23,NE,45,0.0,0.0,40,0.00,CLR,CLR,0.00,WeatherDisplay:10.36,2013-11-25 12:04:00,
2013-11-25 06:09:00,29.7,8.3,30.23,NE,44,0.0,0.0,40,0.00,CLR,CLR,0.00,WeatherDisplay:10.36,2013-11-25 12:09:00,
2013-11-25 06:14:00,29.7,8.3,30.23,NE,49,0.0,0.0,40,0.00,CLR,CLR,0.00,WeatherDisplay:10.36,2013-11-25 12:14:00,
2013-11-25 06:19:00,29.7,8.3,30.23,NE,45,0.0,0.0,40,0.00,CLR,CLR,0.00,WeatherDisplay:10.36,2013-11-25 12:19:00,
2013-11-25 06:24:00,29.5,7.5,30.23,NE,43,0.0,0.0,39,0.00,CLR,CLR,0.00,WeatherDisplay:10.36,2013-11-25 12:24:00,
2013-11-25 06:29:00,29.5,7.5,30.23,NE,44,0.0,0.0,39,0.00,CLR,CLR,0.00,WeatherDisplay:10.36,2013-11-25 12:29:00,
2013-11-25 06:34:00,29.5,7.5,30.23,NE,47,0.0,0.0,39,0.00,CLR,CLR,0.00,WeatherDisplay:10.36,2013-11-25 12:34:00,
2013-11-25 06:39:00,29.5,7.5,30.23,ENE,69,0.0,0.0,39,0.00,CLR,CLR,0.00,WeatherDisplay:10.36,2013-11-25 12:39:00,
2013-11-25 06:44:00,29.5,7.5,30.23,NE,44,0.0,0.0,39,0.00,CLR,CLR,0.00,WeatherDisplay:10.36,2013-11-25 12:44:00,
2013-11-25 06:49:00,29.5,7.5,30.23,NE,45,0.0,0.0,39,0.00,CLR,CLR,0.00,WeatherDisplay:10.36,2013-11-25 12:49:00,
2013-11-25 06:54:00,29.5,7.5,30.23,ESE,116,0.0,0.0,39,0.00,CLR,CLR,0.00,WeatherDisplay:10.36,2013-11-25 12:54:00,
2013-11-25 06:59:00,29.5,7.5,30.23,NE,45,0.0,0.0,39,0.00,CLR,CLR,0.00,WeatherDisplay:10.36,2013-11-25 12:59:00,
2013-11-25 07:04:00,29.5,7.5,30.23,NE,46,0.0,0.0,39,0.00,CLR,CLR,0.00,WeatherDisplay:10.36,2013-11-25 13:04:00,
2013-11-25 07:09:00,29.5,7.5,30.23,NE,41,0.0,0.0,39,0.00,CLR,CLR,0.00,WeatherDisplay:10.36,2013-11-25 13:09:00,
2013-11-25 07:14:00,29.7,7.7,30.23,East,90,0.0,0.0,39,0.00,CLR,CLR,0.00,WeatherDisplay:10.36,2013-11-25 13:14:00,
2013-11-25 07:19:00,29.7,8.3,30.23,NE,43,0.0,0.0,40,0.00,CLR,CLR,0.00,WeatherDisplay:10.36,2013-11-25 13:19:00,
2013-11-25 07:25:00,29.7,7.7,30.23,NE,45,0.0,0.0,39,0.00,CLR,CLR,0.00,WeatherDisplay:10.36,2013-11-25 13:25:00,
2013-11-25 07:30:00,29.7,7.7,30.23,NE,38,0.0,0.0,39,0.00,CLR,CLR,0.00,WeatherDisplay:10.36,2013-11-25 13:30:00,
2013-11-25 07:35:00,29.7,8.3,30.20,NE,44,0.0,0.0,40,0.00,CLR,CLR,0.00,WeatherDisplay:10.36,2013-11-25 13:35:00,
2013-11-25 07:40:00,29.7,8.3,30.20,NE,43,0.0,0.0,40,0.00,CLR,CLR,0.00,WeatherDisplay:10.36,2013-11-25 13:40:00,
2013-11-25 07:45:00,29.7,8.3,30.20,ENE,70,0.0,0.0,40,0.00,CLR,CLR,0.00,WeatherDisplay:10.36,2013-11-25 13:45:00,
2013-11-25 07:50:00,29.8,8.4,30.20,ENE,60,0.0,0.0,40,0.00,CLR,CLR,0.00,WeatherDisplay:10.36,2013-11-25 13:50:00,
2013-11-25 07:55:00,30.0,8.6,30.20,East,83,0.0,0.0,40,0.00,CLR,CLR,0.00,WeatherDisplay:10.36,2013-11-25 13:55:00,
2013-11-25 08:00:00,30.0,8.6,30.20,NE,55,0.0,0.0,40,0.00,CLR,CLR,0.00,WeatherDisplay:10.36,2013-11-25 14:00:00,
2013-11-25 08:05:00,30.0,8.0,30.20,NE,40,0.0,0.0,39,0.00,CLR,CLR,0.00,WeatherDisplay:10.36,2013-11-25 14:05:00,
2013-11-25 08:10:00,30.2,8.2,30.20,ENE,58,0.0,0.0,39,0.00,CLR,CLR,0.00,WeatherDisplay:10.36,2013-11-25 14:10:00,
2013-11-25 08:15:00,30.4,8.3,30.20,NE,44,0.0,0.0,39,0.00,CLR,CLR,0.00,WeatherDisplay:10.36,2013-11-25 14:15:00,
2013-11-25 08:20:00,30.4,8.3,30.20,NE,49,0.0,0.0,39,0.00,CLR,CLR,0.00,WeatherDisplay:10.36,2013-11-25 14:20:00,
2013-11-25 08:25:00,30.4,8.3,30.20,NE,46,0.0,0.0,39,0.00,CLR,CLR,0.00,WeatherDisplay:10.36,2013-11-25 14:25:00,
2013-11-25 08:30:00,30.6,8.5,30.20,NE,45,0.0,0.0,39,0.00,CLR,CLR,0.00,WeatherDisplay:10.36,2013-11-25 14:30:00,
2013-11-25 08:35:00,30.6,8.5,30.23,NE,45,0.0,0.0,39,0.00,CLR,CLR,0.00,WeatherDisplay:10.36,2013-11-25 14:35:00,
2013-11-25 08:40:00,30.7,8.7,30.23,NE,42,0.0,0.0,39,0.00,CLR,CLR,0.00,WeatherDisplay:10.36,2013-11-25 14:40:00,
2013-11-25 08:45:00,30.9,8.8,30.23,East,85,0.0,0.0,39,0.00,CLR,CLR,0.00,WeatherDisplay:10.36,2013-11-25 14:45:00,
2013-11-25 08:50:00,31.1,9.0,30.23,East,95,0.0,0.0,39,0.00,CLR,CLR,0.00,WeatherDisplay:10.36,2013-11-25 14:50:00,
2013-11-25 08:55:00,31.1,8.4,30.23,NE,52,0.0,0.0,38,0.00,CLR,CLR,0.00,WeatherDisplay:10.36,2013-11-25 14:55:00,
2013-11-25 09:00:00,31.3,8.6,30.23,ENE,68,0.0,0.0,38,0.00,CLR,CLR,0.00,WeatherDisplay:10.36,2013-11-25 15:00:00,
2013-11-25 09:05:00,31.5,8.7,30.23,East,87,0.0,0.0,38,0.00,CLR,CLR,0.00,WeatherDisplay:10.36,2013-11-25 15:05:00,
2013-11-25 09:10:00,31.5,8.7,30.23,NE,44,0.0,0.0,38,0.00,CLR,CLR,0.00,WeatherDisplay:10.36,2013-11-25 15:10:00,
2013-11-25 09:15:00,31.6,8.9,30.23,ENE,57,0.0,0.0,38,0.00,CLR,CLR,0.00,WeatherDisplay:10.36,2013-11-25 15:15:00,
2013-11-25 09:20:00,31.6,8.3,30.23,NE,44,0.0,0.0,37,0.00,CLR,CLR,0.00,WeatherDisplay:10.36,2013-11-25 15:20:00,
2013-11-25 09:25:00,31.6,8.3,30.23,NE,46,0.0,0.0,37,0.00,CLR,CLR,0.00,WeatherDisplay:10.36,2013-11-25 15:25:00,
2013-11-25 09:30:00,31.8,8.5,30.23,NE,47,0.0,0.0,37,0.00,CLR,CLR,0.00,WeatherDisplay:10.36,2013-11-25 15:30:00,
2013-11-25 09:35:00,32.0,8.6,30.20,NE,52,0.0,0.0,37,0.00,CLR,CLR,0.00,WeatherDisplay:10.36,2013-11-25 15:35:00,
2013-11-25 09:40:00,32.2,8.8,30.20,NE,52,0.0,0.0,37,0.00,CLR,CLR,0.00,WeatherDisplay:10.36,2013-11-25 15:40:00,
2013-11-25 09:45:00,32.2,8.2,30.20,SE,129,0.0,0.0,36,0.00,CLR,CLR,0.00,WeatherDisplay:10.36,2013-11-25 15:45:00,
2013-11-25 09:50:00,32.2,8.2,30.20,NE,45,0.0,0.0,36,0.00,CLR,CLR,0.00,WeatherDisplay:10.36,2013-11-25 15:50:00,
2013-11-25 09:55:00,32.4,8.3,30.20,NE,44,0.0,0.0,36,0.00,CLR,CLR,0.00,WeatherDisplay:10.36,2013-11-25 15:55:00,
2013-11-25 10:00:00,32.5,8.5,30.20,NE,46,0.0,0.0,36,0.00,CLR,CLR,0.00,WeatherDisplay:10.36,2013-11-25 16:00:00,
2013-11-25 10:05:00,32.7,8.7,30.20,NE,46,0.0,0.0,36,0.00,CLR,CLR,0.00,WeatherDisplay:10.36,2013-11-25 16:05:00,
2013-11-25 10:10:00,32.9,8.8,30.20,NE,46,0.0,0.0,36,0.00,CLR,CLR,0.00,WeatherDisplay:10.36,2013-11-25 16:10:00,
2013-11-25 10:15:00,33.1,8.4,30.20,NE,46,0.0,0.0,35,0.00,CLR,CLR,0.00,WeatherDisplay:10.36,2013-11-25 16:15:00,
2013-11-25 10:20:00,33.1,8.4,30.20,NE,48,0.0,0.0,35,0.00,CLR,CLR,0.00,WeatherDisplay:10.36,2013-11-25 16:20:00,
2013-11-25 10:25:00,33.3,8.5,30.20,NE,45,0.0,0.0,35,0.00,CLR,CLR,0.00,WeatherDisplay:10.36,2013-11-25 16:25:00,
2013-11-25 10:30:00,33.4,8.7,30.20,NE,43,0.0,0.0,35,0.00,CLR,CLR,0.00,WeatherDisplay:10.36,2013-11-25 16:30:00,
2013-11-25 10:35:00,33.6,8.2,30.20,NE,44,0.0,0.0,34,0.00,CLR,CLR,0.00,WeatherDisplay:10.36,2013-11-25 16:35:00,
2013-11-25 10:40:00,33.8,8.4,30.20,NE,55,0.0,0.0,34,0.00,CLR,CLR,0.00,WeatherDisplay:10.36,2013-11-25 16:40:00,
2013-11-25 10:45:00,34.0,8.5,30.20,NE,44,0.0,0.0,34,0.00,CLR,CLR,0.00,WeatherDisplay:10.36,2013-11-25 16:45:00,
2013-11-25 10:50:00,34.2,8.7,30.20,NE,44,0.0,0.0,34,0.00,CLR,CLR,0.00,WeatherDisplay:10.36,2013-11-25 16:50:00,
2013-11-25 10:55:00,34.3,8.8,30.20,NE,45,0.0,0.0,34,0.00,CLR,CLR,0.00,WeatherDisplay:10.36,2013-11-25 16:55:00,
2013-11-25 11:00:00,34.3,8.2,30.20,NE,45,0.0,0.0,33,0.00,CLR,CLR,0.00,WeatherDisplay:10.36,2013-11-25 17:00:00,
2013-11-25 11:05:00,34.3,8.2,30.20,NE,45,0.0,0.0,33,0.00,CLR,CLR,0.00,WeatherDisplay:10.36,2013-11-25 17:05:00,
2013-11-25 11:10:00,34.5,8.3,30.20,ENE,60,0.0,0.0,33,0.00,CLR,CLR,0.00,WeatherDisplay:10.36,2013-11-25 17:10:00,
2013-11-25 11:15:00,34.9,8.0,30.20,NE,43,0.0,0.0,32,0.00,CLR,CLR,0.00,WeatherDisplay:10.36,2013-11-25 17:15:00,
2013-11-25 11:20:00,35.1,8.8,30.17,NE,44,0.0,0.0,33,0.00,CLR,CLR,0.00,WeatherDisplay:10.36,2013-11-25 17:20:00,
2013-11-25 11:25:00,35.8,8.8,30.17,NE,43,0.0,0.0,32,0.00,CLR,CLR,0.00,WeatherDisplay:10.36,2013-11-25 17:25:00,
2013-11-25 11:30:00,36.1,9.1,30.17,NE,44,0.0,0.0,32,0.00,CLR,CLR,0.00,WeatherDisplay:10.36,2013-11-25 17:30:00,
2013-11-25 11:35:00,36.5,8.7,30.17,NE,43,0.0,0.0,31,0.00,CLR,CLR,0.00,WeatherDisplay:10.36,2013-11-25 17:35:00,
2013-11-25 11:40:00,36.9,9.0,30.17,NE,44,0.0,0.0,31,0.00,CLR,CLR,0.00,WeatherDisplay:10.36,2013-11-25 17:40:00,
2013-11-25 11:45:00,37.0,9.2,30.17,ENE,58,0.0,0.0,31,0.00,CLR,CLR,0.00,WeatherDisplay:10.36,2013-11-25 17:45:00,
2013-11-25 11:50:00,37.0,9.2,30.17,NE,46,0.0,0.0,31,0.00,CLR,CLR,0.00,WeatherDisplay:10.36,2013-11-25 17:50:00,
2013-11-25 11:55:00,37.0,9.2,30.17,NE,46,0.0,0.0,31,0.00,CLR,CLR,0.00,WeatherDisplay:10.36,2013-11-25 17:55:00,
2013-11-25 12:00:00,36.9,9.0,30.17,NE,43,0.0,0.0,31,0.00,CLR,CLR,0.00,WeatherDisplay:10.36,2013-11-25 18:00:00,
2013-11-25 12:05:00,36.9,9.0,30.17,NE,43,0.0,0.0,31,0.00,CLR,CLR,0.00,WeatherDisplay:10.36,2013-11-25 18:05:00,
2013-11-25 12:10:00,36.9,8.3,30.17,NE,43,0.0,0.0,30,0.00,CLR,CLR,0.00,WeatherDisplay:10.36,2013-11-25 18:10:00,
2013-11-25 12:15:00,36.3,7.8,30.17,NE,46,0.0,0.0,30,0.00,CLR,CLR,0.00,WeatherDisplay:10.36,2013-11-25 18:15:00,
2013-11-25 12:20:00,36.1,7.6,30.17,NE,43,0.0,0.0,30,0.00,CLR,CLR,0.00,WeatherDisplay:10.36,2013-11-25 18:20:00,
2013-11-25 12:25:00,36.0,7.5,30.17,ENE,60,0.0,0.0,30,0.00,CLR,CLR,0.00,WeatherDisplay:10.36,2013-11-25 18:25:00,
2013-11-25 12:30:00,35.8,7.3,30.17,NE,45,0.0,0.0,30,0.00,CLR,CLR,0.00,WeatherDisplay:10.36,2013-11-25 18:30:00,
2013-11-25 12:35:00,35.6,7.9,30.17,NE,47,0.0,0.0,31,0.00,CLR,CLR,0.00,WeatherDisplay:10.36,2013-11-25 18:35:00,
2013-11-25 12:40:00,35.6,7.9,30.17,NE,45,0.0,0.0,31,0.00,CLR,CLR,0.00,WeatherDisplay:10.36,2013-11-25 18:40:00,
2013-11-25 12:45:00,35.6,7.9,30.17,NE,45,0.0,0.0,31,0.00,CLR,CLR,0.00,WeatherDisplay:10.36,2013-11-25 18:45:00,
2013-11-25 12:50:00,35.4,7.7,30.14,NE,45,0.0,0.0,31,0.00,CLR,CLR,0.00,WeatherDisplay:10.36,2013-11-25 18:50:00,
2013-11-25 12:55:00,35.6,8.6,30.14,NE,46,0.0,0.0,32,0.00,CLR,CLR,0.00,WeatherDisplay:10.36,2013-11-25 18:55:00,
2013-11-25 13:00:00,35.6,8.6,30.14,ENE,63,0.0,0.0,32,0.00,CLR,CLR,0.00,WeatherDisplay:10.36,2013-11-25 19:00:00,
2013-11-25 13:05:00,35.8,8.8,30.14,NE,45,0.0,0.0,32,0.00,CLR,CLR,0.00,WeatherDisplay:10.36,2013-11-25 19:05:00,
2013-11-25 13:10:00,35.8,9.4,30.14,NE,46,0.0,0.0,33,0.00,CLR,CLR,0.00,WeatherDisplay:10.36,2013-11-25 19:10:00,
2013-11-25 13:15:00,35.6,9.3,30.14,NE,45,0.0,0.0,33,0.00,CLR,CLR,0.00,WeatherDisplay:10.36,2013-11-25 19:15:00,
2013-11-25 13:20:00,35.6,9.9,30.14,NE,46,0.0,0.0,34,0.00,CLR,CLR,0.00,WeatherDisplay:10.36,2013-11-25 19:20:00,
2013-11-25 13:25:00,35.6,9.9,30.14,ENE,70,0.0,0.0,34,0.00,CLR,CLR,0.00,WeatherDisplay:10.36,2013-11-25 19:25:00,
2013-11-25 13:30:00,35.8,10.1,30.14,NE,45,0.0,0.0,34,0.00,CLR,CLR,0.00,WeatherDisplay:10.36,2013-11-25 19:30:00,
2013-11-25 13:35:00,35.8,10.1,30.14,ENE,57,0.0,0.0,34,0.00,CLR,CLR,0.00,WeatherDisplay:10.36,2013-11-25 19:35:00,
2013-11-25 13:40:00,36.1,10.4,30.14,NE,53,0.0,0.0,34,0.00,CLR,CLR,0.00,WeatherDisplay:10.36,2013-11-25 19:40:00,
2013-11-25 13:45:00,36.1,9.8,30.14,NE,38,0.0,0.0,33,0.00,CLR,CLR,0.00,WeatherDisplay:10.36,2013-11-25 19:45:00,
2013-11-25 13:50:00,36.3,9.9,30.11,ENE,59,0.0,0.0,33,0.00,CLR,CLR,0.00,WeatherDisplay:10.36,2013-11-25 19:50:00,
2013-11-25 13:55:00,36.3,9.9,30.11,NE,44,0.0,0.0,33,0.00,CLR,CLR,0.00,WeatherDisplay:10.36,2013-11-25 19:55:00,
2013-11-25 14:00:00,36.1,9.8,30.11,NE,46,0.0,0.0,33,0.00,CLR,CLR,0.00,WeatherDisplay:10.36,2013-11-25 20:00:00,
2013-11-25 14:05:00,36.1,9.8,30.14,NE,45,0.0,0.0,33,0.00,CLR,CLR,0.00,WeatherDisplay:10.36,2013-11-25 20:05:00,
2013-11-25 14:10:00,36.1,9.8,30.14,NE,44,0.0,0.0,33,0.00,CLR,CLR,0.00,WeatherDisplay:10.36,2013-11-25 20:10:00,
2013-11-25 14:15:00,36.3,9.9,30.14,NE,45,0.0,0.0,33,0.00,CLR,CLR,0.00,WeatherDisplay:10.36,2013-11-25 20:15:00,
2013-11-25 14:20:00,36.3,9.9,30.11,NE,47,0.0,0.0,33,0.00,CLR,CLR,0.00,WeatherDisplay:10.36,2013-11-25 20:20:00,
2013-11-25 14:25:00,36.5,10.1,30.11,NE,45,0.0,0.0,33,0.00,CLR,CLR,0.00,WeatherDisplay:10.36,2013-11-25 20:25:00,
2013-11-25 14:30:00,36.5,9.4,30.11,NE,46,0.0,0.0,32,0.00,CLR,CLR,0.00,WeatherDisplay:10.36,2013-11-25 20:30:00,
2013-11-25 14:35:00,36.5,9.4,30.11,NE,43,0.0,0.0,32,0.00,CLR,CLR,0.00,WeatherDisplay:10.36,2013-11-25 20:35:00,
2013-11-25 14:40:00,36.5,9.4,30.11,NE,45,0.0,0.0,32,0.00,CLR,CLR,0.00,WeatherDisplay:10.36,2013-11-25 20:40:00,
2013-11-25 14:45:00,36.5,9.4,30.11,NE,46,0.0,0.0,32,0.00,CLR,CLR,0.00,WeatherDisplay:10.36,2013-11-25 20:45:00,
2013-11-25 14:50:00,36.3,9.2,30.14,NE,47,0.0,0.0,32,0.00,CLR,CLR,0.00,WeatherDisplay:10.36,2013-11-25 20:50:00,
2013-11-25 14:55:00,36.3,9.2,30.14,NE,43,0.0,0.0,32,0.00,CLR,CLR,0.00,WeatherDisplay:10.36,2013-11-25 20:55:00,
2013-11-25 15:00:00,36.3,8.5,30.14,NE,45,0.0,0.0,31,0.00,CLR,CLR,0.00,WeatherDisplay:10.36,2013-11-25 21:00:00,
2013-11-25 15:05:00,36.3,8.5,30.14,NE,43,0.0,0.0,31,0.00,CLR,CLR,0.00,WeatherDisplay:10.36,2013-11-25 21:05:00,
2013-11-25 15:10:00,36.3,9.2,30.14,NE,44,0.0,0.0,32,0.00,CLR,CLR,0.00,WeatherDisplay:10.36,2013-11-25 21:10:00,
2013-11-25 15:15:00,36.3,9.2,30.14,NE,47,0.0,0.0,32,0.00,CLR,CLR,0.00,WeatherDisplay:10.36,2013-11-25 21:15:00,
2013-11-25 15:20:00,36.3,9.2,30.14,NE,45,0.0,0.0,32,0.00,CLR,CLR,0.00,WeatherDisplay:10.36,2013-11-25 21:20:00,
2013-11-25 15:25:00,36.3,9.2,30.14,NE,45,0.0,0.0,32,0.00,CLR,CLR,0.00,WeatherDisplay:10.36,2013-11-25 21:25:00,
2013-11-25 15:30:00,36.5,9.4,30.14,NE,45,0.0,0.0,32,0.00,CLR,CLR,0.00,WeatherDisplay:10.36,2013-11-25 21:30:00,
2013-11-25 15:35:00,36.5,8.7,30.14,NE,44,0.0,0.0,31,0.00,CLR,CLR,0.00,WeatherDisplay:10.36,2013-11-25 21:35:00,
2013-11-25 15:40:00,36.5,8.7,30.14,NE,45,0.0,0.0,31,0.00,CLR,CLR,0.00,WeatherDisplay:10.36,2013-11-25 21:40:00,
2013-11-25 15:45:00,36.7,8.8,30.14,NE,45,0.0,0.0,31,0.00,CLR,CLR,0.00,WeatherDisplay:10.36,2013-11-25 21:45:00,
2013-11-25 15:50:00,36.7,8.8,30.14,NE,43,0.0,0.0,31,0.00,CLR,CLR,0.00,WeatherDisplay:10.36,2013-11-25 21:50:00,
2013-11-25 15:55:00,36.5,8.7,30.14,NE,44,0.0,0.0,31,0.00,CLR,CLR,0.00,WeatherDisplay:10.36,2013-11-25 21:55:00,
2013-11-25 16:00:00,36.5,8.7,30.14,NE,54,0.0,0.0,31,0.00,CLR,CLR,0.00,WeatherDisplay:10.36,2013-11-25 22:00:00,
2013-11-25 16:05:00,36.5,8.7,30.11,NE,46,0.0,0.0,31,0.00,CLR,CLR,0.00,WeatherDisplay:10.36,2013-11-25 22:05:00,
2013-11-25 16:10:00,36.5,8.7,30.11,NE,43,0.0,0.0,31,0.00,CLR,CLR,0.00,WeatherDisplay:10.36,2013-11-25 22:10:00,
2013-11-25 16:15:00,36.5,9.4,30.11,NE,47,0.0,0.0,32,0.00,CLR,CLR,0.00,WeatherDisplay:10.36,2013-11-25 22:15:00,
2013-11-25 16:20:00,36.5,9.4,30.11,NE,45,0.0,0.0,32,0.00,CLR,CLR,0.00,WeatherDisplay:10.36,2013-11-25 22:20:00,
2013-11-25 16:25:00,36.5,9.4,30.11,ENE,65,0.0,0.0,32,0.00,CLR,CLR,0.00,WeatherDisplay:10.36,2013-11-25 22:25:00,
2013-11-25 16:30:00,36.3,9.2,30.11,East,85,0.0,0.0,32,0.00,CLR,CLR,0.00,WeatherDisplay:10.36,2013-11-25 22:30:00,
2013-11-25 16:35:00,36.3,9.2,30.11,NE,43,0.0,0.0,32,0.00,CLR,CLR,0.00,WeatherDisplay:10.36,2013-11-25 22:35:00,
2013-11-25 16:40:00,36.3,9.2,30.11,NE,49,0.0,0.0,32,0.00,CLR,CLR,0.00,WeatherDisplay:10.36,2013-11-25 22:40:00,
2013-11-25 16:45:00,36.1,9.1,30.11,NE,47,0.0,0.0,32,0.00,CLR,CLR,0.00,WeatherDisplay:10.36,2013-11-25 22:45:00,
2013-11-25 16:50:00,36.1,9.1,30.11,East,95,0.0,0.0,32,0.00,CLR,CLR,0.00,WeatherDisplay:10.36,2013-11-25 22:50:00,
2013-11-25 16:55:00,36.0,8.9,30.11,ESE,115,0.0,0.0,32,0.00,CLR,CLR,0.00,WeatherDisplay:10.36,2013-11-25 22:55:00,
2013-11-25 17:00:00,35.8,8.8,30.11,NE,45,0.0,0.0,32,0.00,CLR,CLR,0.00,WeatherDisplay:10.36,2013-11-25 23:00:00,
2013-11-25 17:05:00,35.8,8.8,30.11,SE,132,0.0,0.0,32,0.00,CLR,CLR,0.00,WeatherDisplay:10.36,2013-11-25 23:05:00,
2013-11-25 17:10:00,35.8,8.8,30.11,NE,44,0.0,0.0,32,0.00,CLR,CLR,0.00,WeatherDisplay:10.36,2013-11-25 23:10:00,
2013-11-25 17:15:00,35.8,9.4,30.11,NE,50,0.0,0.0,33,0.00,CLR,CLR,0.00,WeatherDisplay:10.36,2013-11-25 23:15:00,
2013-11-25 17:20:00,35.8,9.4,30.11,NE,45,0.0,0.0,33,0.00,CLR,CLR,0.00,WeatherDisplay:10.36,2013-11-25 23:20:00,
2013-11-25 17:25:00,35.6,9.3,30.11,NE,45,0.0,0.0,33,0.00,CLR,CLR,0.00,WeatherDisplay:10.36,2013-11-25 23:25:00,
2013-11-25 17:30:00,35.6,9.3,30.11,NE,46,0.0,0.0,33,0.00,CLR,CLR,0.00,WeatherDisplay:10.36,2013-11-25 23:30:00,
2013-11-25 17:35:00,35.6,9.3,30.14,NE,48,0.0,0.0,33,0.00,CLR,CLR,0.00,WeatherDisplay:10.36,2013-11-25 23:35:00,
2013-11-25 17:40:00,35.6,9.9,30.14,NE,44,0.0,0.0,34,0.00,CLR,CLR,0.00,WeatherDisplay:10.36,2013-11-25 23:40:00,
2013-11-25 17:45:00,35.6,9.9,30.14,NE,43,0.0,0.0,34,0.00,CLR,CLR,0.00,WeatherDisplay:10.36,2013-11-25 23:45:00,
2013-11-25 17:50:00,35.6,9.9,30.14,NE,44,0.0,0.0,34,0.00,CLR,CLR,0.00,WeatherDisplay:10.36,2013-11-25 23:50:00,
2013-11-25 17:55:00,35.6,9.9,30.14,NE,46,0.0,0.0,34,0.00,CLR,CLR,0.00,WeatherDisplay:10.36,2013-11-25 23:55:00,
2013-11-25 18:00:00,35.6,9.9,30.14,NE,44,0.0,0.0,34,0.00,CLR,CLR,0.00,WeatherDisplay:10.36,2013-11-26 00:00:00,
2013-11-25 18:05:00,35.6,9.9,30.14,NE,46,0.0,0.0,34,0.00,CLR,CLR,0.00,WeatherDisplay:10.36,2013-11-26 00:05:00,
2013-11-25 18:10:00,35.6,9.9,30.14,NE,46,0.0,0.0,34,0.00,CLR,CLR,0.00,WeatherDisplay:10.36,2013-11-26 00:10:00,
2013-11-25 18:15:00,35.6,10.6,30.14,NE,46,0.0,0.0,35,0.00,CLR,CLR,0.00,WeatherDisplay:10.36,2013-11-26 00:15:00,
2013-11-25 18:20:00,35.6,10.6,30.14,NE,45,0.0,0.0,35,0.00,CLR,CLR,0.00,WeatherDisplay:10.36,2013-11-26 00:20:00,
2013-11-25 18:25:00,35.6,10.6,30.14,NE,43,0.0,0.0,35,0.00,CLR,CLR,0.00,WeatherDisplay:10.36,2013-11-26 00:25:00,
2013-11-25 18:30:00,35.6,10.6,30.14,NE,45,0.0,0.0,35,0.00,CLR,CLR,0.00,WeatherDisplay:10.36,2013-11-26 00:30:00,
2013-11-25 18:35:00,35.6,10.6,30.14,NE,47,0.0,0.0,35,0.00,CLR,CLR,0.00,WeatherDisplay:10.36,2013-11-26 00:35:00,
2013-11-25 18:40:00,35.6,11.2,30.14,NE,46,0.0,0.0,36,0.00,CLR,CLR,0.00,WeatherDisplay:10.36,2013-11-26 00:40:00,
2013-11-25 18:45:00,35.6,11.2,30.14,NE,45,0.0,0.0,36,0.00,CLR,CLR,0.00,WeatherDisplay:10.36,2013-11-26 00:45:00,
2013-11-25 18:50:00,35.6,11.2,30.14,NE,46,0.0,0.0,36,0.00,CLR,CLR,0.00,WeatherDisplay:10.36,2013-11-26 00:50:00,
2013-11-25 18:55:00,35.6,11.2,30.14,NE,46,0.0,0.0,36,0.00,CLR,CLR,0.00,WeatherDisplay:10.36,2013-11-26 00:55:00,
2013-11-25 19:00:00,35.6,11.2,30.14,NE,46,0.0,0.0,36,0.00,CLR,CLR,0.00,WeatherDisplay:10.36,2013-11-26 01:00:00,
2013-11-25 19:05:00,35.6,11.9,30.14,NE,45,0.0,0.0,37,0.00,CLR,CLR,0.00,WeatherDisplay:10.36,2013-11-26 01:05:00,
2013-11-25 19:10:00,35.6,12.5,30.14,NE,44,0.0,0.0,38,0.00,CLR,CLR,0.00,WeatherDisplay:10.36,2013-11-26 01:10:00,
2013-11-25 19:15:00,36.1,14.1,30.14,NE,46,0.0,0.0,40,0.00,CLR,CLR,0.00,WeatherDisplay:10.36,2013-11-26 01:15:00,
2013-11-25 19:20:00,36.7,15.2,30.14,NE,44,0.0,0.0,41,0.00,CLR,CLR,0.00,WeatherDisplay:10.36,2013-11-26 01:20:00,
2013-11-25 19:25:00,36.9,15.3,30.14,NE,45,0.0,0.0,41,0.00,CLR,CLR,0.00,WeatherDisplay:10.36,2013-11-26 01:25:00,
2013-11-25 19:30:00,36.9,15.9,30.14,NE,46,0.0,0.0,42,0.00,CLR,CLR,0.00,WeatherDisplay:10.36,2013-11-26 01:30:00,
2013-11-25 19:35:00,36.9,15.9,30.14,NE,45,0.0,0.0,42,0.00,CLR,CLR,0.00,WeatherDisplay:10.36,2013-11-26 01:35:00,
2013-11-25 19:40:00,37.0,16.6,30.14,NE,45,0.0,0.0,43,0.00,CLR,CLR,0.00,WeatherDisplay:10.36,2013-11-26 01:40:00,
2013-11-25 19:45:00,37.2,16.7,30.14,NE,45,0.0,0.0,43,0.00,CLR,CLR,0.00,WeatherDisplay:10.36,2013-11-26 01:45:00,
2013-11-25 19:50:00,37.2,16.7,30.14,NE,46,0.0,0.0,43,0.00,CLR,CLR,0.00,WeatherDisplay:10.36,2013-11-26 01:50:00,
2013-11-25 19:55:00,37.2,16.2,30.14,NE,44,0.0,0.0,42,0.00,CLR,CLR,0.00,WeatherDisplay:10.36,2013-11-26 01:55:00,
2013-11-25 20:00:00,36.9,15.3,30.14,NE,46,0.0,0.0,41,0.00,CLR,CLR,0.00,WeatherDisplay:10.36,2013-11-26 02:00:00,
2013-11-25 20:05:00,36.9,15.3,30.14,NE,45,0.0,0.0,41,0.00,CLR,CLR,0.00,WeatherDisplay:10.36,2013-11-26 02:05:00,
2013-11-25 20:10:00,37.0,15.5,30.14,NE,46,0.0,0.0,41,0.00,CLR,CLR,0.00,WeatherDisplay:10.36,2013-11-26 02:10:00,
2013-11-25 20:15:00,37.0,14.9,30.14,NE,45,0.0,0.0,40,0.00,CLR,CLR,0.00,WeatherDisplay:10.36,2013-11-26 02:15:00,
2013-11-25 20:20:00,37.2,15.1,30.14,NE,46,0.0,0.0,40,0.00,CLR,CLR,0.00,WeatherDisplay:10.36,2013-11-26 02:20:00,
2013-11-25 20:25:00,37.0,14.9,30.14,NE,46,0.0,0.0,40,0.00,CLR,CLR,0.00,WeatherDisplay:10.36,2013-11-26 02:25:00,
2013-11-25 20:30:00,36.9,14.8,30.14,NE,47,0.0,0.0,40,0.00,CLR,CLR,0.00,WeatherDisplay:10.36,2013-11-26 02:30:00,
2013-11-25 20:35:00,36.5,13.9,30.14,NE,45,0.0,0.0,39,0.00,CLR,CLR,0.00,WeatherDisplay:10.36,2013-11-26 02:35:00,
2013-11-25 20:40:00,36.3,14.3,30.14,NE,47,0.0,0.0,40,0.00,CLR,CLR,0.00,WeatherDisplay:10.36,2013-11-26 02:40:00,
2013-11-25 20:45:00,36.1,14.1,30.14,NE,46,0.0,0.0,40,0.00,CLR,CLR,0.00,WeatherDisplay:10.36,2013-11-26 02:45:00,
2013-11-25 20:50:00,36.1,14.1,30.14,NE,45,0.0,0.0,40,0.00,CLR,CLR,0.00,WeatherDisplay:10.36,2013-11-26 02:50:00,
2013-11-25 20:55:00,36.0,13.9,30.14,NE,45,0.0,0.0,40,0.00,CLR,CLR,0.00,WeatherDisplay:10.36,2013-11-26 02:55:00,
2013-11-25 21:00:00,36.0,13.9,30.14,NE,46,0.0,0.0,40,0.00,CLR,CLR,0.00,WeatherDisplay:10.36,2013-11-26 03:00:00,
2013-11-25 21:05:00,35.8,13.8,30.14,NE,45,0.0,0.0,40,0.00,CLR,CLR,0.00,WeatherDisplay:10.36,2013-11-26 03:05:00,
2013-11-25 21:10:00,35.8,13.8,30.14,NE,45,0.0,0.0,40,0.00,CLR,CLR,0.00,WeatherDisplay:10.36,2013-11-26 03:10:00,
2013-11-25 21:15:00,35.8,13.8,30.14,NE,45,0.0,0.0,40,0.00,CLR,CLR,0.00,WeatherDisplay:10.36,2013-11-26 03:15:00,
2013-11-25 21:20:00,35.8,13.8,30.11,NE,46,0.0,0.0,40,0.00,CLR,CLR,0.00,WeatherDisplay:10.36,2013-11-26 03:20:00,
2013-11-25 21:25:00,35.6,13.6,30.11,NE,46,0.0,0.0,40,0.00,CLR,CLR,0.00,WeatherDisplay:10.36,2013-11-26 03:25:00,
2013-11-25 21:30:00,35.6,13.6,30.11,NE,45,0.0,0.0,40,0.00,CLR,CLR,0.00,WeatherDisplay:10.36,2013-11-26 03:30:00,
2013-11-25 21:35:00,35.4,13.5,30.11,NE,45,0.0,0.0,40,0.00,CLR,CLR,0.00,WeatherDisplay:10.36,2013-11-26 03:35:00,
2013-11-25 21:40:00,35.4,13.5,30.11,NE,45,0.0,0.0,40,0.00,CLR,CLR,0.00,WeatherDisplay:10.36,2013-11-26 03:40:00,
2013-11-25 21:45:00,35.2,13.3,30.11,NE,45,0.0,0.0,40,0.00,CLR,CLR,0.00,WeatherDisplay:10.36,2013-11-26 03:45:00,
2013-11-25 21:50:00,35.1,13.1,30.11,NE,46,0.0,0.0,40,0.00,CLR,CLR,0.00,WeatherDisplay:10.36,2013-11-26 03:50:00,
2013-11-25 21:55:00,34.9,13.0,30.11,NE,46,0.0,0.0,40,0.00,CLR,CLR,0.00,WeatherDisplay:10.36,2013-11-26 03:55:00,
2013-11-25 22:00:00,34.5,13.2,30.11,NE,46,0.0,0.0,41,0.00,CLR,CLR,0.00,WeatherDisplay:10.36,2013-11-26 04:00:00,
2013-11-25 22:05:00,34.3,13.0,30.11,NE,45,0.0,0.0,41,0.00,CLR,CLR,0.00,WeatherDisplay:10.36,2013-11-26 04:05:00,
2013-11-25 22:10:00,34.2,12.9,30.11,NE,45,0.0,0.0,41,0.00,CLR,CLR,0.00,WeatherDisplay:10.36,2013-11-26 04:10:00,
2013-11-25 22:15:00,34.0,12.7,30.11,NE,45,0.0,0.0,41,0.00,CLR,CLR,0.00,WeatherDisplay:10.36,2013-11-26 04:15:00,
2013-11-25 22:20:00,33.8,12.6,30.11,NE,45,0.0,0.0,41,0.00,CLR,CLR,0.00,WeatherDisplay:10.36,2013-11-26 04:20:00,
2013-11-25 22:25:00,33.8,12.6,30.11,NE,45,0.0,0.0,41,0.00,CLR,CLR,0.00,WeatherDisplay:10.36,2013-11-26 04:25:00,
2013-11-25 22:30:00,33.6,12.4,30.11,NE,45,0.0,0.0,41,0.00,CLR,CLR,0.00,WeatherDisplay:10.36,2013-11-26 04:30:00,
2013-11-25 22:35:00,33.4,12.8,30.11,NE,46,0.0,0.0,42,0.00,CLR,CLR,0.00,WeatherDisplay:10.36,2013-11-26 04:35:00,
2013-11-25 22:40:00,33.3,12.6,30.11,NE,47,0.0,0.0,42,0.00,CLR,CLR,0.00,WeatherDisplay:10.36,2013-11-26 04:40:00,
2013-11-25 22:45:00,33.3,12.6,30.11,NE,46,0.0,0.0,42,0.00,CLR,CLR,0.00,WeatherDisplay:10.36,2013-11-26 04:45:00,
2013-11-25 22:50:00,33.1,12.4,30.11,NE,45,0.0,0.0,42,0.00,CLR,CLR,0.00,WeatherDisplay:10.36,2013-11-26 04:50:00,
2013-11-25 22:55:00,33.1,12.4,30.11,NE,47,0.0,0.0,42,0.00,CLR,CLR,0.00,WeatherDisplay:10.36,2013-11-26 04:55:00,
2013-11-25 23:00:00,32.9,12.3,30.11,NE,46,0.0,0.0,42,0.00,CLR,CLR,0.00,WeatherDisplay:10.36,2013-11-26 05:00:00,
2013-11-25 23:01:00,32.9,12.8,30.11,NE,46,0.0,0.0,43,0.00,CLR,CLR,0.00,WeatherDisplay:10.36,2013-11-26 05:01:00,
2013-11-25 23:02:00,32.9,12.8,30.11,NE,46,0.0,0.0,43,0.00,CLR,CLR,0.00,WeatherDisplay:10.36,2013-11-26 05:02:00,
2013-11-25 23:03:00,32.9,12.8,30.11,NE,46,0.0,0.0,43,0.00,CLR,CLR,0.00,WeatherDisplay:10.36,2013-11-26 05:03:00,
2013-11-25 23:05:00,32.9,12.8,30.11,NE,45,0.0,0.0,43,0.00,CLR,CLR,0.00,WeatherDisplay:10.36,2013-11-26 05:05:00,
2013-11-25 23:09:00,32.7,12.7,30.11,NE,47,0.0,0.0,43,0.00,CLR,CLR,0.00,WeatherDisplay:10.36,2013-11-26 05:09:00,
2013-11-25 23:14:00,32.7,12.7,30.11,NE,46,0.0,0.0,43,0.00,CLR,CLR,0.00,WeatherDisplay:10.36,2013-11-26 05:14:00,
2013-11-25 23:19:00,32.5,12.5,30.11,NE,45,0.0,0.0,43,0.00,CLR,CLR,0.00,WeatherDisplay:10.36,2013-11-26 05:19:00,
2013-11-25 23:24:00,32.5,13.0,30.11,NE,45,0.0,0.0,44,0.00,CLR,CLR,0.00,WeatherDisplay:10.36,2013-11-26 05:24:00,
2013-11-25 23:25:00,32.5,13.0,30.11,NE,45,0.0,0.0,44,0.00,CLR,CLR,0.00,WeatherDisplay:10.36,2013-11-26 05:25:00,
2013-11-25 23:30:00,32.4,12.8,30.11,NE,46,0.0,0.0,44,0.00,CLR,CLR,0.00,WeatherDisplay:10.36,2013-11-26 05:30:00,
2013-11-25 23:35:00,32.4,12.8,30.11,NE,45,0.0,0.0,44,0.00,CLR,CLR,0.00,WeatherDisplay:10.36,2013-11-26 05:35:00,
2013-11-25 23:40:00,32.2,12.7,30.11,NE,43,0.0,0.0,44,0.00,CLR,CLR,0.00,WeatherDisplay:10.36,2013-11-26 05:40:00,
2013-11-25 23:45:00,32.2,13.2,30.11,NE,45,0.0,0.0,45,0.00,CLR,CLR,0.00,WeatherDisplay:10.36,2013-11-26 05:45:00,
2013-11-25 23:50:00,32.2,13.2,30.11,NE,46,0.0,0.0,45,0.00,CLR,CLR,0.00,WeatherDisplay:10.36,2013-11-26 05:50:00,
2013-11-25 23:55:00,32.0,13.0,30.11,NE,46,0.0,0.0,45,0.00,CLR,CLR,0.00,WeatherDisplay:10.36,2013-11-26 05:55:00,